Flag for Japan Weather past 2 weeks in Yokosuka, Japan

Now
63 °F

Clear.


Feels Like: 63 °F
Forecast: 64 / 73 °F
Wind: 12 mph from North

Location: Tokyo International Airport

Current Time: Sep 21, 2014 at 5:32:20 AM

Latest Report: Sep 21, 2014 at 5:00 AM


Visibility: 10 mi

Pressure: 29.98 "Hg

Humidity: 73%

Dew point: 54 °F

Location of YokosukaLocation

Historic Weather in Yokosuka — Graph

°F

Yokosuka temperature yesterday

Maximum temperature yesterday: 72 °F (at 12:00 AM)
Minimum temperature yesterday: 68 °F (at 3:00 AM)
Average temperature yesterday: 69 °F

Past Weeks' High & Low Weather Summary

 TemperatureHumidityPressure
High84 °F (Sep 6, 1:00 PM)94% (Sep 6, 8:30 PM)29.98 "Hg (Sep 6, 8:30 PM)
Low63 °F (Sep 21, 4:30 AM)31% (Sep 18, 7:30 PM)29.62 "Hg (Sep 9, 2:00 AM)
Average73 °F74%29.83 "Hg
* Reported Sep 6 4:00 AM — Sep 21 4:30 AM, Yokosuka, Weather by CustomWeather, © 2014

Note: Actual official high and low records may vary slightly from our data, if they occured in-between our weather recording intervals... More about our weather records

Advertising

Yokosuka weather history for previous 24 hours

 ConditionsComfort  
Time TempWeatherWind HumidityBarometerVisibility
4:30 AM
Sep 21
63 °FClear.12 mph68%29.98 "Hg10 mi
4:00 AM64 °FPassing clouds.10 mph73%29.95 "HgN/A
3:30 AM64 °FPassing clouds.12 mph73%29.95 "HgN/A
3:00 AM64 °FClear.12 mph73%29.95 "Hg10 mi
2:30 AM64 °FClear.10 mph68%29.95 "Hg10 mi
10:30 PM
Sep 20
68 °FPassing clouds.10 mph73%29.98 "HgN/A
10:00 PM68 °FPartly cloudy.10 mph73%29.98 "HgN/A
9:30 PM68 °FPartly cloudy.12 mph73%29.98 "HgN/A
9:00 PM68 °FPassing clouds.12 mph73%29.98 "HgN/A
8:30 PM68 °FPassing clouds.12 mph73%29.98 "HgN/A
8:00 PM68 °FPassing clouds.12 mph73%29.98 "HgN/A
7:30 PM68 °FPassing clouds.12 mph73%29.98 "HgN/A
7:00 PM68 °FPassing clouds.13 mph73%29.95 "HgN/A
6:30 PM68 °FPassing clouds.12 mph73%29.92 "HgN/A
6:00 PM68 °FPassing clouds.12 mph73%29.92 "HgN/A
5:30 PM68 °FLight rain. Partly sunny.13 mph73%29.92 "HgN/A
5:00 PM68 °FLight rain. Partly sunny.12 mph73%29.92 "HgN/A
4:30 PM70 °FLight rain. Partly sunny.13 mph69%29.92 "HgN/A
4:00 PM70 °FLight rain. Overcast.13 mph64%29.92 "HgN/A
3:30 PM70 °FLight rain. Overcast.9 mph64%29.89 "HgN/A
3:00 PM70 °FLight rain. Overcast.9 mph64%29.89 "HgN/A
2:30 PM70 °FLight rain. Overcast.8 mph64%29.92 "HgN/A
2:00 PM70 °FLight rain. Overcast.7 mph60%29.89 "HgN/A
1:30 PM70 °FScattered showers. Overcast.8 mph60%29.92 "HgN/A
1:00 PM70 °FOvercast.7 mph64%29.95 "HgN/A
12:30 PM70 °FLight rain. Overcast.8 mph64%29.95 "HgN/A
12:00 PM70 °FLight rain. Overcast.12 mph64%29.95 "HgN/A
11:30 AM70 °FLight rain. Overcast.14 mph64%29.95 "HgN/A
11:00 AM70 °FLight rain. More clouds than sun.10 mph64%29.95 "HgN/A
10:30 AM70 °FLight rain. Overcast.12 mph64%29.95 "HgN/A
10:00 AM70 °FLight rain. Overcast.12 mph64%29.95 "HgN/A
9:00 AM68 °FLight rain. Overcast.10 mph64%29.95 "HgN/A
8:30 AM68 °FLight rain. More clouds than sun.13 mph64%29.95 "HgN/A
8:00 AM68 °FLight rain. Overcast.13 mph60%29.95 "HgN/A
7:30 AM68 °FLight rain. Overcast.13 mph60%29.92 "HgN/A
7:00 AM68 °FLight rain. More clouds than sun.14 mph56%29.92 "HgN/A
6:30 AM68 °FLight rain. Mostly cloudy.13 mph60%29.92 "HgN/A
6:00 AM68 °FLight rain. Overcast.12 mph60%29.89 "HgN/A
5:30 AM68 °FLight rain. Clear.13 mph64%29.89 "HgN/A
5:00 AM68 °FClear.9 mph60%29.89 "Hg10 mi
Weather by CustomWeather, © 2014

See weather overviewHow to use our weather pages